Погода в Аарау

Швейцария     47°23′30″N   8°02′59″E
темп.,
°C
ветер,
м/с
пор.,
м/с
влажн.,
%
обл.,
%
осадки,
мм/ч
давл.,
гПа
погр.,
м
16 мая, вс
вс1623:00+8юз299785 3.2 1009442
02:00+7ююз249899 3.4 1010118
05:00+7ююз1298100 0.2 100972
08:00+7вюв1198100 0.4 100941
11:00+9ююв1197100 0.8 1008176
14:00+10ююз1298100 5.9 1008143
17:00+9ююв1299100 6.8 100791
20:00+10ю149895 8.6 1006239
17 мая, пн
пн1723:00+7зюз249811 6.3 100885
02:00+5юз23978 6.3 101070
05:00+4юз2297100 0.1 101152
08:00+7зюз3896100 0.9 10131093
11:00+7юз41095100 0.9 10141107
14:00+8зюз4118955 1.1 10151208
17:00+11юз5106841 0.1 10151213
20:00+10зюз387326 0.3 1015654
18 мая, вт
вт1823:00+5ююз229619 0.1 101741
02:00+6ююз259586 0.2 1017144
05:00+7ююз2693100 0.1 1016242
08:00+8зюз279238 0.4 1017661
11:00+12зсз59665 0.4 10171470
14:00+13зсз710526 0.8 10181738
17:00+13зсз69505 0.1 10181732
20:00+9зсз49796 0.3 1019795
19 мая, ср
ср1923:00+4зюз11967 0.1 102215
02:00+3ююз11965 0.1 102215
05:00+2ююв11975 0.0 102114
08:00+6ююв128547 0.0 1021189
11:00+12зюз2360100 0.1 10181204
14:00+12зсз4571100 1.6 1017843
17:00+11зсз3680100 1.1 1017836
20:00+8з389639 2.1 1018511
20 мая, чт
чт2023:00+6з239761 0.1 102173
02:00+6з119899 0.3 102246
05:00+6з1297100 0.0 102467
08:00+7з139398 0.1 1026249
11:00+10зсз348079 0.3 1026866
14:00+11зсз458363 1.8 10261087
17:00+13з34615 1.0 10251047
20:00+11зсз37795 1.3 1025335